Muncie, IN

7:32 PM EST on February 26, 2017 (GMT -0500)
Delaware County-Johnson

Weather History for KMIE - November, 2014

Change the Weather History Date:

Saturday, November 8, 2014

  Actual Average Record
Temperature  
Mean Temperature 43 °F 46 °F  
Max Temperature 48 °F 55 °F 72 °F (1999)
Min Temperature 38 °F 37 °F 10 °F (1991)
Degree Days  
Heating Degree Days 22 19  
Month to date heating degree days 169 141  
Since 1 July heating degree days 664 605  
Cooling Degree Days 0 0  
Month to date cooling degree days 0 0  
Year to date cooling degree days 831 955  
Moisture  
Dew Point 35 °F    
Average Humidity 75    
Maximum Humidity 89    
Minimum Humidity 60    
Precipitation  
Precipitation 0.01 in 0.11 in 0.79 in (1968)
Month to date precipitation 0.29 0.85  
Year to date precipitation 35.13 34.64  
Sea Level Pressure  
Sea Level Pressure 29.89 in    
Wind  
Wind Speed 11 mph (WSW)    
Max Wind Speed 20 mph    
Max Gust Speed 26 mph    
Visibility 9 miles    
Events Rain    
T = Trace of Precipitation, MM = Missing Value Source: NWS Daily Summary

Daily Weather History Graph

Daily Weather History Graph

Search for Another Location

Airport or City:

Trip Planner

Search our weather history database for the weather conditions in past years. The results will help you decide how hot, cold, wet, or windy it might be!

Date:

Astronomy

Nov. 08, 2014 Rise Set
Actual Time 7:19 AM EST 5:31 PM EST
Civil Twilight 6:50 AM EST 5:59 PM EST
Nautical Twilight 6:18 AM EST 6:32 PM EST
Astronomical Twilight 5:46 AM EST 7:03 PM EST
Moon 7:11 PM EST (11/8) 8:55 AM EST (11/8)
Length of Visible Light 11h 09m
Length of Day
10h 11m
Waning Gibbous, 96% of the Moon is Illuminated
Nov 8
Waning Gibbous
Nov 14
Last Quarter
Nov 22
New
Nov 29
First Quarter
Dec 6
Full

Hourly Weather History & Observations

Time (EST) Temp. Windchill Dew Point Humidity Pressure Visibility Wind Dir Wind Speed Gust Speed Precip Events Conditions
12:53 AM 39.0 °F 32.8 °F 30.0 °F 70% 29.94 in 10.0 mi South 9.2 mph - N/A   Clear
1:53 AM 37.9 °F 30.9 °F 30.0 °F 73% 29.91 in 10.0 mi South 10.4 mph - N/A   Clear
2:53 AM 37.9 °F 30.5 °F 30.0 °F 73% 29.90 in 10.0 mi South 11.5 mph - N/A   Clear
3:53 AM 37.9 °F 30.0 °F 30.0 °F 73% 29.87 in 10.0 mi South 12.7 mph - N/A   Scattered Clouds
4:53 AM 39.9 °F 32.5 °F 30.0 °F 68% 29.83 in 10.0 mi South 12.7 mph 21.9 mph N/A   Partly Cloudy
5:53 AM 39.9 °F 32.9 °F 30.9 °F 70% 29.81 in 10.0 mi South 11.5 mph 20.7 mph N/A   Partly Cloudy
6:53 AM 42.1 °F 34.2 °F 30.0 °F 62% 29.80 in 10.0 mi SSW 16.1 mph 19.6 mph N/A   Partly Cloudy
7:53 AM 42.1 °F 36.6 °F 30.9 °F 65% 29.81 in 10.0 mi SW 9.2 mph - N/A   Mostly Cloudy
8:53 AM 43.0 °F 35.4 °F 32.0 °F 65% 29.81 in 10.0 mi SSW 16.1 mph 21.9 mph N/A   Overcast
9:53 AM 45.0 °F 39.3 °F 33.1 °F 63% 29.81 in 10.0 mi SW 11.5 mph - N/A   Mostly Cloudy
10:53 AM 46.0 °F 39.9 °F 34.0 °F 63% 29.82 in 10.0 mi WSW 13.8 mph 23.0 mph N/A   Mostly Cloudy
11:53 AM 46.9 °F - 36.0 °F 66% 29.84 in 10.0 mi WNW 18.4 mph 25.3 mph N/A   Overcast
12:45 PM 46.0 °F 39.9 °F 36.0 °F 68% 29.83 in 10.0 mi West 13.8 mph 23.0 mph N/A   Overcast
12:53 PM 46.0 °F 40.6 °F 37.0 °F 71% 29.84 in 10.0 mi WNW 11.5 mph 20.7 mph N/A   Overcast
1:53 PM 46.0 °F 40.2 °F 37.0 °F 71% 29.85 in 10.0 mi WNW 12.7 mph - N/A   Overcast
2:53 PM 44.1 °F 37.1 °F 37.9 °F 79% 29.87 in 7.0 mi NW 15.0 mph 20.7 mph N/A   Overcast
3:49 PM 42.8 °F 38.0 °F 39.2 °F 87% 29.88 in 5.0 mi WNW 8.1 mph - N/A   Overcast
3:53 PM 43.0 °F 37.7 °F 39.9 °F 89% 29.89 in 5.0 mi WNW 9.2 mph - N/A   Overcast
4:23 PM 42.1 °F 36.1 °F 39.9 °F 92% 29.89 in 2.5 mi NW 10.4 mph - 0.01 in Rain Light Rain
4:25 PM 42.1 °F 36.6 °F 39.0 °F 89% 29.89 in 3.0 mi NW 9.2 mph - 0.01 in Rain Light Rain
4:35 PM 42.1 °F 36.6 °F 39.0 °F 89% 29.90 in 8.0 mi WNW 9.2 mph - 0.01 in   Overcast
4:53 PM 42.1 °F 37.7 °F 39.0 °F 89% 29.91 in 10.0 mi WNW 6.9 mph - 0.01 in   Overcast
5:53 PM 42.1 °F 37.7 °F 37.9 °F 85% 29.94 in 10.0 mi West 6.9 mph - N/A   Overcast
6:53 PM 43.0 °F 38.8 °F 37.0 °F 80% 29.95 in 10.0 mi West 6.9 mph - N/A   Overcast
7:53 PM 42.1 °F 37.7 °F 36.0 °F 79% 29.97 in 10.0 mi Variable 6.9 mph - N/A   Overcast
8:53 PM 42.1 °F 37.1 °F 34.0 °F 73% 29.98 in 10.0 mi West 8.1 mph - N/A   Overcast
9:53 PM 41.0 °F 36.4 °F 33.1 °F 73% 29.98 in 10.0 mi West 6.9 mph - N/A   Mostly Cloudy
10:53 PM 39.9 °F 35.1 °F 32.0 °F 73% 29.98 in 10.0 mi West 6.9 mph - N/A   Scattered Clouds
11:53 PM 39.0 °F 35.7 °F 30.9 °F 73% 29.97 in 10.0 mi SW 4.6 mph - N/A   Scattered Clouds